weather.gov     
National Weather Service

Regional Weather Roundup
NWS Homepage
This page is being discontinued on March 12, 2014.
The same data is available at this site. Please update your bookmarks.
Thank you, and we apologize for the inconvenience.
Please send an email to SR-SRH.Webmaster@noaa.gov with any concerns.


Current Version
Previous Version:    01  02  03  04  05  06  07  08  09  10  11  12  13  14  15  16  17  18  19  20  21  22  23  24  25  26  27  28  29  30  
   31  32  33  34  35  36  37  38  39  40  41  42  43  44  45  46  47  48  49  50  51  52  53  54  
[Printable]
337
ASUS41 KCTP 230610
RWRCTP

REGIONAL WEATHER ROUNDUP
NATIONAL WEATHER SERVICE STATE COLLEGE PA
100 AM EST SUN NOV 23 2014

Note: "fair" indicates few or no clouds below 12,000 feet with no
significant weather and/or obstructions to visibility.

* = STATION THAT DOES NOT REPORT PRECIPITATION /E.G. RAIN...SNOW...ETC/
    THUNDER OR FOG.

PAZ002>004-007>009-013>016-020>023-029>032-230700-
WESTERN PENNSYLVANIA

CITY           SKY/WX    TMP DP  RH WIND       PRES   REMARKS
ERIE           CLOUDY    48  34  58 SW18G28   30.02R
MEADVILLE      CLOUDY    44  32  62 S7        30.05S
FRANKLIN*      CLOUDY    41  34  75 SW7       30.08S
NEW CASTLE       N/A     44  33  65 CALM      30.09R
BEAVER COUNTY  NOT AVBL
BUTLER*        CLOUDY    46  28  49 S7        30.11R
PITTSBURGH INT CLOUDY    50  27  40 S9        30.10R
PITTSBURGH     CLOUDY    48  25  40 S12       30.10R
INDIANA*       CLOUDY    48  32  53 SW9       30.14S
LATROBE        CLOUDY    48  27  43 SW10      30.13R
WASHINGTON CO* CLOUDY    50  27  40 SW6       30.12S
$$

PAZ004>006-010>012-017>019-024>028-033>037-041-042-045-046-049>053-230700-
CENTRAL PENNSYLVANIA

CITY           SKY/WX    TMP DP  RH WIND       PRES   REMARKS
BRADFORD       CLOUDY    42  34  73 SW10      30.06S
DUBOIS         LGT RAIN  43  35  73 SW9       30.08S
CLEARFIELD     CLOUDY    33  32  96 CALM      30.10F FOG
JOHNSTOWN      CLOUDY    47  26  44 SW13      30.11R
ALTOONA        CLOUDY    40  28  62 W8        30.12S
STATE COLLEGE  CLOUDY    35  27  72 NW5       30.11F
WILLIAMSPORT   CLOUDY    32  28  85 W5        30.15F
SELINSGROVE    CLOUDY    38  18  44 SW3       30.16F
FT INDIANTOWN  CLOUDY    31  22  69 E2        30.19F
CAPITAL CITY   MOCLDY    33  23  66 CALM      30.19F
HARRISBURG     MOCLDY    36  20  52 E5        30.19F
YORK           PTCLDY    41  17  38 CALM      30.18F
$$

PAZ038>040-043-044-047-048-054-055-060>062-067>071-230700-
EASTERN PENNSYLVANIA

CITY           SKY/WX    TMP DP  RH WIND       PRES   REMARKS
SCRANTON       CLOUDY    39  17  41 SW6       30.14F
MOUNT POCONO   CLOUDY    39  16  39 W12G22    30.11F
ALLENTOWN      CLOUDY    35  22  58 NW3       30.19F
QUAKERTOWN*    MOCLDY    39  21  48 SW5       30.20F
READING        MOCLDY    39  20  46 S3        30.20F
LANCASTER      MOCLDY    34  24  67 E3        30.20F
COATESVILLE    PTCLDY    39  21  48 CALM      30.20F
POTTSTOWN      CLOUDY    40  21  46 CALM      30.22F
BLUE BELL      CLOUDY    43  25  49 S3        30.20F
DOYLESTOWN     CLOUDY    40  21  46 VRB7      30.20F
WILLOW GROVE   NOT AVBL
NORTH PHILA    CLOUDY    44  21  40 SW8       30.24F
PHILADELPHIA   MOCLDY    42  24  49 SW8       30.24F
$$




U.S. Dept. of Commerce
NOAA National Weather Service
1325 East West Highway
Silver Spring, MD 20910
E-mail: w-nws.webmaster@noaa.gov
Page last modified: May 16, 2007
NATIONAL WEATHER SERVICE: for Safety, for Work, for Fun - FOR LIFE